Location: ??? ????
(38.0580°N, 23.1536°E)
Time: 14:58:21
(UTC+00:00)

S3M - Pass Details

Date: 13 December 2025
Orbit: 947 x 1004 km, 83.0° (Epoch: 17 January)

Event Time Altitude Azimuth Distance (km) Brightness Sun altitude
Rises 17:04:35 0° 172° (S) 3,712 7.1 -22.2°
Reaches altitude 10° 17:07:09 10° 168° (SSE) 2,763 6.4 -22.7°
Maximum altitude 17:13:19 55° 92° (E) 1,178 4.0 -23.8°
Enters shadow 17:14:35 48° 52° (NE) 1,285 4.2 -24.1°
